DW4360 Weather Reports


time (UTC)temp
F
wind
direction
speed
knots
gust
knots
rain 1hr
in
rain 24hr
in
rain mn
in
humidity
%
barometer
mb
20260504043233 79 322 1.7 0.0 0.00 0.00 0.00 41 1005.7
20260504042232 79 321 0.0 0.0 0.00 0.00 0.00 41 1005.7
20260504041231 80 324 0.0 0.0 0.00 0.00 0.00 41 1005.7
20260504040230 80 322 0.0 0.0 0.00 0.00 0.00 39 1005.5
20260504035229 81 325 0.0 0.0 0.00 0.00 0.00 38 1005.4
20260504034228 82 304 0.0 0.0 0.00 0.00 0.00 37 1005.3
20260504033226 82 333 0.0 0.0 0.00 0.00 0.00 37 1005.2
20260504032225 83 320 0.0 0.0 0.00 0.00 0.00 36 1005.1
20260504031225 84 325 0.0 0.0 0.00 0.00 0.00 35 1005.0
20260504030223 84 317 0.0 0.0 0.00 0.00 0.00 34 1005.0
20260504025223 85 326 2.6 0.0 0.00 0.00 0.00 33 1004.9
20260504024221 85 321 0.0 0.0 0.00 0.00 0.00 32 1004.8
20260504023221 86 323 1.7 0.0 0.00 0.00 0.00 31 1004.8
20260504022220 86 318 1.7 0.0 0.00 0.00 0.00 31 1004.9
20260504021219 86 313 0.0 0.0 0.00 0.00 0.00 31 1004.9
20260504015217 87 333 1.7 0.0 0.00 0.00 0.00 30 1005.0
20260504014216 88 329 5.2 0.0 0.00 0.00 0.00 30 1005.0
20260504012213 89 311 0.0 0.0 0.00 0.00 0.00 29 1005.0
20260504011213 89 324 3.5 0.0 0.00 0.00 0.00 28 1005.2
20260504010212 90 320 5.2 0.0 0.00 0.00 0.00 27 1005.2
20260504001206 96 332 0.0 0.0 0.00 0.00 0.00 23 1005.4
20260504000205 96 324 3.5 0.0 0.00 0.00 0.00 24 1005.5
20260503234203 96 329 0.0 0.0 0.00 0.00 0.00 24 1005.6
20260503232201 96 301 0.0 0.0 0.00 0.00 0.00 26 1005.8
20260503231200 96 321 2.6 0.0 0.00 0.00 0.00 25 1006.0
20260503225158 94 319 0.0 0.0 0.00 0.00 0.00 25 1006.2
20260503224158 94 323 0.0 0.0 0.00 0.00 0.00 26 1006.4
20260503223157 94 333 0.0 0.0 0.00 0.00 0.00 25 1006.7
20260503222155 94 314 4.3 0.0 0.00 0.00 0.00 26 1006.7
20260503221154 94 309 0.0 0.0 0.00 0.00 0.00 25 1006.9
20260503220153 94 311 0.0 0.0 0.00 0.00 0.00 24 1007.0
20260503215152 94 327 0.0 0.0 0.00 0.00 0.00 27 1007.2
20260503214151 94 317 0.0 0.0 0.00 0.00 0.00 30 1007.3
20260503213150 93 325 4.3 0.0 0.00 0.00 0.00 30 1007.4
20260503212149 92 327 3.5 0.0 0.00 0.00 0.00 31 1007.5
20260503211148 91 109 0.0 0.0 0.00 0.00 0.00 32 1007.7
20260503205146 91 327 0.0 0.0 0.00 0.00 0.00 33 1007.9
20260503203144 89 319 0.0 0.0 0.00 0.00 0.00 36 1008.3
20260503201142 88 311 0.0 0.0 0.00 0.00 0.00 40 1008.5
20260503200141 87 315 0.0 0.0 0.00 0.00 0.00 41 1008.6
20260503195140 86 324 0.0 0.0 0.00 0.00 0.00 42 1008.8
20260503193138 84 318 3.5 0.0 0.00 0.00 0.00 43 1009.0
20260503192137 83 327 6.1 0.0 0.00 0.00 0.00 43 1009.2
20260503191136 82 319 3.5 0.0 0.00 0.00 0.00 45 1009.3
20260503190135 82 320 0.0 0.0 0.00 0.00 0.00 47 1009.5
20260503184133 81 317 0.0 0.0 0.00 0.00 0.00 48 1009.7
20260503183132 80 331 0.0 0.0 0.00 0.00 0.00 49 1009.9
20260503182131 79 315 0.0 0.0 0.00 0.00 0.00 51 1010.0
20260503180129 76 316 0.0 0.0 0.00 0.00 0.00 54 1010.2
20260503175128 75 331 0.9 0.0 0.00 0.00 0.00 56 1010.3
20260503174128 73 317 0.0 0.0 0.00 0.00 0.00 61 1010.4
20260503173126 71 101 0.0 0.0 0.00 0.00 0.00 65 1010.6
20260503172125 68 104 0.0 0.0 0.00 0.00 0.00 72 1010.6
20260503170123 65 324 0.0 0.0 0.00 0.00 0.00 75 1010.6
20260503160116 60 325 0.0 0.0 0.00 0.00 0.00 86 1011.0
20260503150111 56 217 0.0 0.0 0.00 0.00 0.00 93 1011.2
20260503140105 54 218 0.0 0.0 0.00 0.00 0.00 93 1011.0
20260503131100 54 218 0.0 0.0 0.00 0.00 0.00 91 1010.7
20260503081029 58 217 0.0 0.0 0.00 0.00 0.00 87 1011.2
20260503072024 59 216 0.0 0.0 0.00 0.00 0.00 85 1011.3
20260503071023 60 216 0.0 0.0 0.00 0.00 0.00 84 1011.3
20260503055015 62 216 0.0 0.0 0.00 0.00 0.00 80 1011.3
20260503054014 62 216 0.0 0.0 0.00 0.00 0.00 79 1011.1
20260503053013 63 216 0.0 0.0 0.00 0.00 0.00 78 1011.0
20260503052012 63 216 0.0 0.0 0.00 0.00 0.00 79 1011.2
20260503051011 63 215 0.0 0.0 0.00 0.00 0.00 77 1011.1
20260503050010 63 215 0.0 0.0 0.00 0.00 0.00 77 1011.3
20260503045009 64 215 0.0 0.0 0.00 0.00 0.00 77 1011.6